Notices

What's New in latest Release from April 7th, 2021:

- Updated Glossary, including Speed of Maximum Gust, and Total Hourly Precipitation

- Updated national and regional climate services offices contacts and prices information

- Addition of station inventory lists for 1981-2010, 1971-2000, and 1961-1990 Normals.

If you haven't already, please take our survey and provide feedback about our website: https://eccc.sondage-survey.ca/f/LanguageSelection.aspx?s=442ca660-fcf1-47c0-95a9-59707d6fd709

Hourly Data Report for April 16, 2004

TORONTO CITY
ONTARIO

43°40'00.000" N
79°24'00.000" W
112.50 m
6158355
71508
XTO

Download Data

Hourly Data (April 2004)
Hourly Data Report for April 16, 2004
TIME
LST
Temp Definition
°C
Dew Point Definition
°C
Rel Hum Definition
%
Precip. Amount Definition
mm

Wind Dir Definition
10's deg

Wind Spd Definition
km/h
Visibility Definition
km
Stn Press Definition
kPa
Hmdx Definition


Wind Chill Definition


Weather Definition


00:00 7.2 -2.6 50   LegendMM LegendMM LegendMM 101.11     LegendNANA
01:00 6.5 -2.5 53   LegendMM LegendMM LegendMM 101.09     LegendNANA
02:00 6.0 -2.2 56   LegendMM LegendMM LegendMM 101.11     LegendNANA
03:00 5.5 -2.7 55   LegendMM LegendMM LegendMM 101.13     LegendNANA
04:00 5.0 -2.7 57   LegendMM LegendMM LegendMM 101.16     LegendNANA
05:00 5.1 -1.4 63   LegendMM LegendMM LegendMM 101.18     LegendNANA
06:00 5.5 -0.2 67   LegendMM LegendMM LegendMM 101.21     LegendNANA
07:00 6.4 -0.4 62   LegendMM LegendMM LegendMM 101.24     LegendNANA
08:00 9.1 -3.2 42   LegendMM LegendMM LegendMM 101.22     LegendNANA
09:00 10.0 -3.7 38   LegendMM LegendMM LegendMM 101.18     LegendNANA
10:00 10.4 -2.4 41   LegendMM LegendMM LegendMM 101.16     LegendNANA
11:00 10.7 -3.1 38   LegendMM LegendMM LegendMM 101.13     LegendNANA
12:00 12.0 -3.1 35   LegendMM LegendMM LegendMM 101.05     LegendNANA
13:00 11.6 -2.7 37   LegendMM LegendMM LegendMM 101.01     LegendNANA
14:00 11.1 -3.1 37   LegendMM LegendMM LegendMM 100.88     LegendNANA
15:00 11.3 -3.3 36   LegendMM LegendMM LegendMM 100.79     LegendNANA
16:00 9.9 -3.5 39   LegendMM LegendMM LegendMM 100.73     LegendNANA
17:00 9.7 -3.7 39   LegendMM LegendMM LegendMM 100.72     LegendNANA
18:00 9.7 -4.4 37   LegendMM LegendMM LegendMM 100.69     LegendNANA
19:00 8.9 -3.1 43   LegendMM LegendMM LegendMM 100.64     LegendNANA
20:00 8.7 -3.9 41   LegendMM LegendMM LegendMM 100.65     LegendNANA
21:00 8.5 -2.0 48   LegendMM LegendMM LegendMM 100.64     LegendNANA
22:00 8.7 -1.2 50   LegendMM LegendMM LegendMM 100.58     LegendNANA
23:00 8.9 -0.2 53   LegendMM LegendMM LegendMM 100.57     LegendNANA

Notes on Data Quality.

Legend

  • E = Estimated
  • M = Missing
  • NA = Not Available*
  • [empty] = Indicates an unobserved value
Date modified: